User: anonymous
Location: Unspecified
(0.0000°N, 0.0000°E)
Time: 11:28:39
(UTC+02:00)
Language:

Centaur D-1AR AC-41 - Orbit

View from above orbital plane
View from above orbital plane
View from above satellite
View from above satellite

Ground track
Ground track

The orbit data is extracted from the following two-line orbital elements,

1 10976U 78068B   14257.33542407 -.00000111  00000-0  15771-2 0  4632
2 10976 021.3990 190.9683 7159495 359.6093 039.8891 02.22289603293859
Epoch (UTC): 14 September 2014 08:03:00
Eccentricity: 0.7159495
inclination: 21.3990°
perigee height: 666 km
apogee height: 36177 km
right ascension of ascending node: 190.9683°
argument of perigee: 359.6093°
revolutions per day: 2.22289603
mean anomaly at epoch: 39.8891°
orbit number at epoch: 29385

The dashed part of the orbit path shows where the satellite is in the earth's shadow,  

DLR